FENGYUN 1C DEB

Satellite information

Favourite Embed

Satellite Type and Status

DEBRISIN ORBIT

Key statistics

Satellite FENGYUN 1C DEB at a glance.

Uptime

9715

Days in orbit

Revolutions

≈ 14.2

Per day

Orbit

SSO

Sun Synchronous Orbit

Inclination

98.6

Latest

Satellite identification and parameters

Extended collection of information and parameters for FENGYUN 1C DEB.

Object identification

Identified? True

Debris? True

Object name: FENGYUN 1C DEB

International designator: 1999-025EHF

Object number (NORAD): 37437

Object ID (CCSDS): 37437

Country: PEOPLES REPUBLIC OF CHINA (PRC)

Current information (Y/N): Y

RCS size: SMALL

Orbital parameters

Period: 101.493 minutes

Inclination: 98.5859 deg

SMA: 7207.517 km

Apoapsis: 911.092 km

Periapsis: 747.671 km

RAAN: 327.0314 deg

Eccentricy: 0.0113368

Argument of periapsis: 82.7284 deg

Mean anomaly: 94.5607 deg

Mean motion: 14.18810149 rev/day

Mean motion (dot): 0.00001064 rev/day2

B* drag term: 0.0004989187 1/REarth

Two-line elements (TLE)

Creation date: Dec. 1, 2025, 3:48 a.m.

Reference frame: TEME

Reference center: EARTH

Epoch: Nov. 30, 2025, 6:36 p.m. UTC

TLE line 0: 0 FENGYUN 1C DEB

TLE line 1: 1 37437U 99025EHF 25334.77529309 .00001064 00000-0 49892-3 0 9994

TLE line 2: 2 37437 98.5859 327.0314 0113368 82.7284 94.5607 14.18810149638211

Live tracking on map

Real-time ground track for satellite FENGYUN 1C DEB.

In-orbit conjunctions

A list of the most updated potential collisions computed for object FENGYUN 1C DEB.

Target Orbit TCA Probability of collision Miss distance Type
COSMOS 1275 DEB LEO 2025-04-30 02:52:50 0.0002250335 75.0 (m) DEBRIS
CZ-6A DEB LEO 2024-11-27 19:01:25 0.0001333456 260.0 (m) DEBRIS
METEOR 2-17 DEB LEO 2024-09-24 07:50:14 0.000166483 543.0 (m) DEBRIS

Associated space launch

Chinese polar orbiting meteorological satellite

FENGYUN 1C DEB was lifted into orbit during the mission ‘Long March 4B | Feng Yun 1C’, on board a Long March 4B space rocket.

The launch took place on May 10, 1999, 1:33 a.m. from Launch Complex 7.

For more information about the launch, click the button.

Launch to space Long March 4B | Feng Yun 1C
Long March 4B | Feng Yun 1C

Agency: N/A

Status: Launch Successful

Launch date: May 10, 1999, 1:33 a.m. UTC

Rocket: Long March 4B

Launch pad: Launch Complex 7

Location: Taiyuan Satellite Launch Center, People's Republic of China

...

Latest news about this satellite

There are no fresh news available about this satellite. Check back as we update our databases every day.


Newsletter sign-up

Weekly statistics, charts and insights to help you stay on top of the space industry.